User: anonymous   Login
Location: Bothell
(47.7630°N, 122.2040°W)
Time: 20:46:27
(UTC-07:00)
Language:

Oscar 16 - Orbit

View from above orbital plane
View from above orbital plane
View from above satellite
View from above satellite

Ground track
Ground track

The orbit data is extracted from the following two-line orbital elements,

1 20439U 90005D   16179.39644892  .00000028  00000-0  26534-4 0  9995
2 20439  98.5742 115.8047 0011749 125.6437 347.4070 14.32635586380606
Epoch (UTC): 27 June 2016 09:30:53
Eccentricity: 0.0011749
inclination: 98.5742°
perigee height: 774 km
apogee height: 791 km
right ascension of ascending node: 115.8047°
argument of perigee: 125.6437°
revolutions per day: 14.32635586
mean anomaly at epoch: 347.4070°
orbit number at epoch: 38060

The dashed part of the orbit path shows where the satellite is in the earth's shadow,  

DLR